Location: Bottom School (historical)
(37.9078°N, 89.3593°W)
Time: 03:54:46
(UTC+00:00)

Gurwin Techsat 1B - Visible Passes

Search period start: 19 June 2024 00:00
Search period end: 29 June 2024 00:00
Orbit: 810 x 813 km, 98.9° (Epoch: 18 June)

Date Brightness Start Highest point End Pass type
(mag) Time Alt. Az. Time Alt. Az. Time Alt. Az.
19 Jun 10.2 08:52:36 10° NE 08:57:18 31° E 09:01:58 10° SSE visible
20 Jun 10.9 08:30:12 10° NE 08:33:53 19° E 08:37:33 10° SE visible
21 Jun 11.3 08:09:17 10° ENE 08:10:24 11° E 08:11:31 10° ESE visible
21 Jun 8.6 09:45:31 10° NNE 09:50:50 81° WNW 09:56:08 10° SSW visible
22 Jun 9.1 09:22:20 10° NNE 09:27:37 61° ESE 09:32:50 10° S visible
23 Jun 9.9 08:59:25 10° NNE 09:04:18 36° E 09:09:09 10° SSE visible
24 Jun 10.7 08:36:53 10° NE 08:40:54 22° E 08:44:56 10° SE visible
25 Jun 11.1 08:15:11 10° ENE 08:17:26 13° E 08:19:42 10° ESE visible
25 Jun 8.7 09:52:30 10° N 09:57:47 71° WNW 10:03:03 10° SSW visible
26 Jun 8.9 09:29:16 10° NNE 09:34:34 70° ESE 09:39:51 10° S visible
27 Jun 9.7 09:06:16 10° NNE 09:11:17 42° E 09:16:16 10° S visible
28 Jun 10.5 08:43:35 10° NE 08:47:55 25° E 08:52:14 10° SSE visible
